FREPRT-WX Weather Reports


Display with metric or nautical units.
time (UTC)temp
F
wind
direction
speed
MPH
gust
MPH
rain 1hr
in
rain 24hr
in
rain mn
in
humidity
%
barometer
mb
20260505121539 51 302 9.0 0.0 0.00 0.00 0.00 69 975.4
20260505120123 50 288 10.0 0.0 0.00 0.00 0.00 69 975.4
20260505114540 50 281 9.0 0.0 0.00 0.00 0.00 68 975.3
20260505113057 50 286 9.0 0.0 0.00 0.00 0.00 66 973.8
20260505111540 50 281 7.0 0.0 0.00 0.00 0.00 66 973.8
20260505110116 50 270 6.0 0.0 0.00 0.00 0.00 66 973.8
20260505101539 50 259 10.0 0.0 0.00 0.00 0.00 57 972.3
20260505100115 51 263 11.0 0.0 0.00 0.00 0.00 57 972.3
20260505094539 51 260 10.0 0.0 0.00 0.00 0.00 68 972.6
20260505093102 51 264 8.0 0.0 0.00 0.00 0.00 65 972.3
20260505091539 51 256 12.0 0.0 0.00 0.00 0.00 65 972.2
20260505090118 51 239 6.0 0.0 0.00 0.00 0.00 65 972.2
20260505084538 53 260 10.0 0.0 0.00 0.00 0.00 75 972.7
20260505083058 52 256 10.0 0.0 0.00 0.00 0.00 75 972.0
20260505081539 53 254 10.0 0.0 0.00 0.00 0.00 75 972.0
20260505080110 54 254 11.0 0.0 0.00 0.00 0.00 67 972.2
20260505074540 55 245 12.0 0.0 0.00 0.00 0.00 76 971.4
20260505073100 55 233 10.0 0.0 0.00 0.00 0.00 76 971.4
20260505071540 56 224 12.0 0.0 0.00 0.00 0.00 76 971.5
20260505070112 57 226 12.0 0.0 0.00 0.00 0.00 76 971.5
20260505064539 56 235 10.0 0.0 0.00 0.00 0.00 77 972.1
20260505063056 57 231 12.0 0.0 0.00 0.00 0.00 74 971.5
20260505061540 57 234 12.0 0.0 0.00 0.00 0.00 74 971.5
20260505060120 58 233 11.0 0.0 0.00 0.00 0.00 74 971.5
20260505054540 58 243 9.0 0.0 0.00 0.00 0.00 74 972.6
20260505053103 58 230 12.0 0.0 0.00 0.00 0.00 66 971.2
20260505051539 59 231 12.0 0.0 0.00 0.00 0.00 66 971.3
20260505050109 60 232 13.0 0.0 0.00 0.00 0.00 66 971.3
20260505041539 62 237 9.0 0.0 0.00 0.00 0.00 62 971.4
20260505040115 62 225 12.0 0.0 0.00 0.00 0.00 62 971.4
20260505034536 62 216 12.0 0.0 0.00 0.00 0.00 61 971.0
20260505033059 62 206 14.0 0.0 0.00 0.00 0.00 65 971.0
20260505031539 62 209 16.0 0.0 0.00 0.00 0.00 65 971.0
20260505030111 62 207 15.0 0.0 0.00 0.00 0.00 65 971.0
20260505024539 63 204 16.0 0.0 0.00 0.00 0.00 54 971.3
20260505023059 64 212 19.0 0.0 0.00 0.00 0.00 55 971.4
20260505021538 63 211 18.0 0.0 0.00 0.00 0.00 55 971.4
20260505020111 63 209 19.0 0.0 0.00 0.00 0.00 55 971.4
20260505014539 64 207 18.0 0.0 0.00 0.00 0.00 45 970.5
20260505013057 64 209 19.0 0.0 0.00 0.00 0.00 45 970.5
20260505011539 63 212 16.0 0.0 0.00 0.00 0.00 45 970.5
20260505010107 65 202 12.0 0.0 0.00 0.00 0.00 45 970.5
20260505004539 65 207 9.0 0.0 0.00 0.00 0.00 42 971.1
20260505003056 66 198 8.0 0.0 0.00 0.00 0.00 42 971.9
20260505001538 66 198 7.0 0.0 0.00 0.00 0.00 42 971.9
20260505000115 68 213 6.0 0.0 0.00 0.00 0.00 42 971.9
20260504234539 69 227 8.0 0.0 0.00 0.00 0.00 35 971.8
20260504233057 69 241 10.0 0.0 0.00 0.00 0.00 35 971.7
20260504231538 70 248 12.0 0.0 0.00 0.00 0.00 35 971.6
20260504230105 71 247 13.0 0.0 0.00 0.00 0.00 35 971.6
20260504224539 71 252 16.0 0.0 0.00 0.00 0.00 37 971.3
20260504223059 72 251 18.0 0.0 0.00 0.00 0.00 36 971.7
20260504221538 72 246 18.0 0.0 0.00 0.00 0.00 36 971.6
20260504220114 73 247 17.0 0.0 0.00 0.00 0.00 36 971.6
20260504214537 72 243 19.0 0.0 0.00 0.00 0.00 36 972.7
20260504213100 72 243 19.0 0.0 0.00 0.00 0.00 36 972.7
20260504211538 73 243 21.0 0.0 0.00 0.00 0.00 38 971.7
20260504210111 73 238 21.0 0.0 0.00 0.00 0.00 38 971.6
20260504204543 73 237 20.0 0.0 0.00 0.00 0.00 37 972.5
20260504203054 73 235 19.0 0.0 0.00 0.00 0.00 37 972.5
20260504201544 73 239 20.0 0.0 0.00 0.00 0.00 37 972.5
20260504200108 73 226 19.0 0.0 0.00 0.00 0.00 40 971.7
20260504194544 74 229 19.0 0.0 0.00 0.00 0.00 34 972.6
20260504193103 74 228 19.0 0.0 0.00 0.00 0.00 34 972.6
20260504191545 73 227 19.0 0.0 0.00 0.00 0.00 34 972.6
20260504190112 73 225 20.0 0.0 0.00 0.00 0.00 34 972.6
20260504184540 73 222 18.0 0.0 0.00 0.00 0.00 27 973.6
20260504183104 73 228 18.0 0.0 0.00 0.00 0.00 31 973.3
20260504181544 72 230 17.0 0.0 0.00 0.00 0.00 31 973.3
20260504180119 72 232 18.0 0.0 0.00 0.00 0.00 31 973.3
20260504174543 72 233 18.0 0.0 0.00 0.00 0.00 34 974.2
20260504173059 71 229 18.0 0.0 0.00 0.00 0.00 38 974.0
20260504171542 70 231 19.0 0.0 0.00 0.00 0.00 38 974.0
20260504170109 70 227 19.0 0.0 0.00 0.00 0.00 34 973.8
20260504160115 67 220 16.0 0.0 0.00 0.00 0.00 44 974.3
20260504150118 63 221 14.0 0.0 0.00 0.00 0.00 59 974.7
20260504140121 58 220 14.0 0.0 0.00 0.00 0.00 63 974.9
20260504130114 54 214 13.0 0.0 0.00 0.00 0.00 72 974.8